Flag for Denmark Weather past 2 weeks in Copenhagen, Denmark

Now
52 °F

Clear.


Feels Like: 48 °F
Forecast: 46 / 61 °F
Wind: 10 mph from North

Location: Koebenhavn-Kastrup Airport


UV Index: 0 (Low)

Visibility: 10 mi


Pressure: 29.95 "Hg

Humidity: 62%

Dew point: 39 °F

Location of CopenhagenLocation

Historic Weather in Copenhagen

°F

Copenhagen temperature yesterday

Maximum temperature yesterday: 64 °F (at 1:50 PM)
Minimum temperature yesterday: 46 °F (at 12:20 AM)
Average temperature yesterday: 54 °F

Past Weeks' High & Low Weather Summary

 TemperatureHumidityPressure
High64 °F (Apr 20, 1:50 PM)100% (Apr 6, 2:20 AM)30.42 "Hg (Apr 6, 2:20 AM)
Low34 °F (Apr 12, 5:50 AM)38% (Apr 16, 12:50 PM)29.50 "Hg (Apr 14, 5:50 AM)
Average47 °F79%29.96 "Hg
* Reported Apr 6 2:20 AM — Apr 21 2:50 AM, Copenhagen, Weather by CustomWeather, © 2014

Note: Actual official high and low records may vary slightly from our data, if they occured in-between our weather recording intervals... More about our weather records

Advertising

Historic Weather Conditions — Data for Previous 24 hours

 ConditionsComfort  
Time TempWeatherWind HumidityBarometerVisibility
2:50 AM
Apr 21
52 °FClear.10 mph67%29.98 "Hg10 mi
2:20 AM52 °FClear.10 mph67%29.98 "Hg10 mi
1:50 AM54 °FClear.10 mph63%29.98 "Hg10 mi
1:20 AM52 °FClear.9 mph67%30.01 "Hg10 mi
12:50 AM52 °FClear.10 mph67%30.01 "Hg10 mi
12:20 AM50 °FClear.8 mph76%30.01 "Hg10 mi
11:50 PM
Apr 20
52 °FClear.8 mph67%30.01 "Hg10 mi
11:20 PM54 °FClear.9 mph63%30.01 "Hg10 mi
10:50 PM52 °FClear.8 mph72%30.01 "Hg10 mi
10:20 PM52 °FClear.9 mph67%30.01 "Hg10 mi
9:50 PM54 °FClear.9 mph63%30.01 "Hg10 mi
9:20 PM55 °FSunny.10 mph59%30.04 "Hg10 mi
8:50 PM55 °FSunny.9 mph59%30.04 "Hg10 mi
8:20 PM57 °FSunny.12 mph55%30.04 "Hg10 mi
7:50 PM57 °FSunny.13 mph55%30.01 "Hg10 mi
7:20 PM59 °FSunny.15 mph51%30.01 "Hg10 mi
6:50 PM59 °FPassing clouds.13 mph55%30.01 "HgN/A
6:20 PM61 °FSunny.17 mph52%30.04 "Hg10 mi
5:50 PM61 °FSunny.15 mph55%30.04 "Hg10 mi
5:20 PM63 °FSunny.16 mph52%30.04 "Hg10 mi
4:50 PM63 °FSunny.15 mph52%30.04 "Hg10 mi
4:20 PM63 °FSunny.15 mph52%30.04 "Hg10 mi
3:50 PM63 °FSunny.16 mph56%30.07 "Hg10 mi
3:20 PM64 °FSunny.15 mph52%30.07 "Hg10 mi
2:50 PM64 °FSunny.14 mph52%30.07 "Hg10 mi
2:20 PM64 °FSunny.15 mph52%30.07 "Hg10 mi
1:50 PM64 °FSunny.14 mph52%30.07 "Hg10 mi
1:20 PM63 °FPassing clouds.10 mph56%30.07 "HgN/A
12:50 PM63 °FPassing clouds.10 mph56%30.07 "HgN/A
12:20 PM61 °FSunny.12 mph59%30.09 "Hg10 mi
11:50 AM61 °FPassing clouds.9 mph59%30.09 "HgN/A
11:20 AM59 °FSunny.10 mph63%30.09 "Hg10 mi
10:50 AM57 °FSunny.10 mph63%30.09 "Hg10 mi
10:20 AM57 °FSunny.9 mph63%30.09 "Hg10 mi
9:50 AM54 °FPassing clouds.8 mph72%30.09 "HgN/A
9:20 AM52 °FPassing clouds.9 mph72%30.09 "HgN/A
8:50 AM50 °FSunny.12 mph71%30.12 "Hg10 mi
8:20 AM50 °FSunny.9 mph71%30.12 "Hg10 mi
7:50 AM48 °FSunny.12 mph71%30.09 "Hg10 mi
7:20 AM48 °FSunny.12 mph71%30.12 "Hg10 mi
6:50 AM46 °FClear.9 mph76%30.12 "Hg10 mi
6:20 AM46 °FClear.10 mph76%30.12 "Hg10 mi
5:50 AM46 °FClear.10 mph76%30.12 "Hg10 mi
5:20 AM46 °FClear.10 mph76%30.12 "Hg10 mi
4:50 AM46 °FClear.10 mph76%30.12 "Hg10 mi
4:20 AM46 °FClear.10 mph76%30.12 "Hg10 mi
3:50 AM46 °FClear.8 mph76%30.15 "Hg10 mi
3:20 AM46 °FClear.8 mph76%30.15 "Hg10 mi
Weather by CustomWeather, © 2014

See weather overview